Location: Unspecified
(47.1700°N, 0.0000°E)
Time: 06:30:08
(UTC+00:00)

STRAND 1 - Visible Passes

Search period start: 19 July 2019 00:00
Search period end: 29 July 2019 00:00
Orbit: 768 x 781 km, 98.5° (Epoch: 17 July)

Date Brightness Start Highest point End Pass type
(mag) Time Alt. Az. Time Alt. Az. Time Alt. Az.
19 Jul ? 21:43:08 10° NNW 21:44:57 12° NW 21:46:45 10° WNW visible
20 Jul ? 21:07:40 10° NNW 21:11:26 21° WNW 21:15:13 10° WSW visible
21 Jul ? 20:33:02 10° N 20:37:46 38° WNW 20:42:27 10° SW visible
22 Jul ? 21:40:10 10° NNW 21:42:13 12° NW 21:44:16 10° WNW visible
23 Jul ? 21:04:49 10° N 21:08:42 22° WNW 21:12:34 10° WSW visible
24 Jul ? 20:30:15 10° N 20:35:00 40° WNW 20:39:44 10° SW visible
25 Jul ? 21:37:13 10° NNW 21:39:29 13° NW 21:41:45 10° W visible
26 Jul ? 21:01:59 10° N 21:05:57 23° WNW 21:09:54 10° WSW visible
27 Jul ? 20:27:26 10° N 20:32:15 42° WNW 20:37:01 10° SW visible
28 Jul ? 21:34:17 10° NNW 21:36:45 14° NW 21:39:13 10° W visible
